Weather History for EHRD - March, 2013

Change the Weather History Date:

Monday, March 25, 2013

  Actual Average Record
Temperature  
Mean Temperature 34 °F -  
Max Temperature 41 °F 54 °F 62 °F (2003)
Min Temperature 28 °F 39 °F 28 °F (2013)
Degree Days  
Heating Degree Days 30    
Moisture  
Dew Point 14 °F    
Average Humidity 45    
Maximum Humidity 55    
Minimum Humidity 21    
Precipitation  
Precipitation 0.00 in - - ()
Sea Level Pressure  
Sea Level Pressure 29.97 in    
Wind  
Wind Speed 17 mph ()    
Max Wind Speed 25 mph    
Max Gust Speed 34 mph    
Visibility 6.8 miles    
Events      
Averages and records for this station are not official NWS values.
T = Trace of Precipitation, MM = Missing Value Source: Averaged Metar Reports

Daily Weather History Graph

Daily Weather History Graph

Search for Another Location

Airport or City:

Trip Planner

Search our weather history database for the weather conditions in past years. The results will help you decide how hot, cold, wet, or windy it might be!

Date:

Astronomy

Mar. 25, 2013 Rise Set
Actual Time 6:33 AM CET 7:04 PM CET
Civil Twilight 5:59 AM CET 7:38 PM CET
Nautical Twilight 5:19 AM CET 8:18 PM CET
Astronomical Twilight 4:36 AM CET 9:01 PM CET
Moon 5:10 PM CET (3/25) 5:20 AM CET (3/25)
Length of Visible Light 13h 38m
Length of Day
12h 30m
Waxing Gibbous, 95% of the Moon is Illuminated
Mar 25
Waxing Gibbous
Mar 27
Full
Apr 3
Last Quarter
Apr 10
New
Apr 18
First Quarter

Hourly Weather History & Observations

Time (CET) Temp. Windchill Dew Point Humidity Pressure Visibility Wind Dir Wind Speed Gust Speed Precip Events Conditions
12:25 AM 32.0 °F 20.1 °F 12.2 °F 44% 30.01 in 6.2 mi East 19.6 mph 32.2 mph N/A   Unknown
12:55 AM 32.0 °F 21.2 °F 12.2 °F 44% 30.01 in 6.2 mi East 16.1 mph - N/A   Unknown
1:00 AM 31 °F - 12 °F 31% 30.01 in 25 mi East 17.9 mph - -   Partly Cloudy
1:25 AM 30.2 °F 18.5 °F 12.2 °F 47% 30.01 in 6.2 mi East 17.3 mph - N/A   Unknown
1:55 AM 30.2 °F 18.9 °F 12.2 °F 47% 30.01 in 6.2 mi East 16.1 mph - N/A   Unknown
2:25 AM 30.2 °F 18.9 °F 14.0 °F 51% 30.01 in 6.2 mi East 16.1 mph - N/A   Unknown
2:55 AM 30.2 °F 18.1 °F 14.0 °F 51% 30.01 in 6.2 mi ENE 18.4 mph - N/A   Unknown
3:25 AM 28.4 °F 16.2 °F 14.0 °F 55% 30.01 in 6.2 mi East 17.3 mph - N/A   Unknown
3:55 AM 28.4 °F 16.6 °F 14.0 °F 55% 29.98 in 6.2 mi East 16.1 mph - N/A   Unknown
4:00 AM 28 °F - 14 °F 43% 30.00 in 22 mi East 15.7 mph - -   Overcast
4:25 AM 28.4 °F 17.0 °F 14.0 °F 55% 29.98 in 6.2 mi ENE 15.0 mph - N/A   Unknown
4:55 AM 28.4 °F 17.5 °F 14.0 °F 55% 29.98 in 6.2 mi ENE 13.8 mph - N/A   Unknown
5:25 AM 28.4 °F 16.6 °F 14.0 °F 55% 29.98 in 6.2 mi ENE 16.1 mph - N/A   Unknown
5:55 AM 28.4 °F 16.2 °F 14.0 °F 55% 30.01 in 6.2 mi ENE 17.3 mph - N/A   Unknown
6:25 AM 28.4 °F 15.8 °F 14.0 °F 55% 30.01 in 6.2 mi ENE 18.4 mph - N/A   Unknown
6:55 AM 28.4 °F 16.2 °F 14.0 °F 55% 30.01 in 6.2 mi East 17.3 mph - N/A   Unknown
7:00 AM 28 °F - 14 °F 43% 30.02 in 22 mi ENE 15.7 mph - -   Partly Cloudy
7:25 AM 28.4 °F 16.6 °F 14.0 °F 55% 30.01 in 6.2 mi ENE 16.1 mph - N/A   Unknown
7:55 AM 28.4 °F 15.4 °F 14.0 °F 55% 30.01 in 6.2 mi ENE 19.6 mph - N/A   Unknown
8:25 AM 30.2 °F 17.1 °F 15.8 °F 55% 30.01 in 6.2 mi East 21.9 mph 33.4 mph N/A   Unknown
8:55 AM 30.2 °F 17.4 °F 14.0 °F 51% 30.01 in 6.2 mi East 20.7 mph - N/A   Unknown
9:25 AM 30.2 °F 17.8 °F 15.8 °F 55% 30.01 in 6.2 mi East 19.6 mph 31.1 mph N/A   Unknown
9:55 AM 30.2 °F 16.8 °F 14.0 °F 51% 30.01 in 6.2 mi ENE 23.0 mph - N/A   Unknown
10:00 AM 31 °F - 15 °F 37% 30.01 in 16 mi ENE 22.4 mph - -   Overcast
10:25 AM 32.0 °F 18.9 °F 14.0 °F 48% 30.01 in 6.2 mi ENE 24.2 mph - N/A   Unknown
10:55 AM 32.0 °F 19.2 °F 14.0 °F 48% 30.01 in 6.2 mi ENE 23.0 mph - N/A   Unknown
11:25 AM 33.8 °F 21.6 °F 15.8 °F 48% 29.98 in 6.2 mi ENE 23.0 mph - N/A   Unknown
11:55 AM 35.6 °F 24.5 °F 15.8 °F 44% 29.98 in 6.2 mi ENE 20.7 mph - N/A   Unknown
12:25 PM 37.4 °F 26.6 °F 17.6 °F 45% 29.98 in 6.2 mi ENE 21.9 mph - N/A   Unknown
12:55 PM 37.4 °F 26.6 °F 15.8 °F 41% 29.95 in 6.2 mi ENE 21.9 mph - N/A   Unknown
1:00 PM 38 °F - 16 °F 28% 29.97 in 14 mi ENE 24.6 mph - -   Partly Cloudy
1:25 PM 39.2 °F 29.0 °F 14.0 °F 36% 29.95 in 6.2 mi ENE 21.9 mph 33.4 mph N/A   Unknown
1:55 PM 41.0 °F 31.6 °F 14.0 °F 33% 29.95 in 6.2 mi East 20.7 mph - N/A   Unknown
2:25 PM 41.0 °F 30.9 °F 14.0 °F 33% 29.95 in 6.2 mi ENE 24.2 mph - N/A   Unknown
2:55 PM 41.0 °F 31.4 °F 15.8 °F 36% 29.92 in 6.2 mi East 21.9 mph 33.4 mph N/A   Unknown
3:25 PM 39.2 °F 29.0 °F 14.0 °F 36% 29.92 in 6.2 mi East 21.9 mph 34.5 mph N/A   Unknown
3:55 PM 39.2 °F 28.3 °F 14.0 °F 36% 29.92 in 6.2 mi ENE 25.3 mph - N/A   Unknown
4:00 PM 40 °F - 14 °F 21% 29.94 in 19 mi East 22.4 mph - -  
4:25 PM 39.2 °F 28.5 °F 12.2 °F 33% 29.92 in 6.2 mi ENE 24.2 mph - N/A   Unknown
4:55 PM 39.2 °F 29.3 °F 14.0 °F 36% 29.92 in 6.2 mi ENE 20.7 mph - N/A   Unknown
5:25 PM 39.2 °F 29.3 °F 14.0 °F 36% 29.92 in 6.2 mi East 20.7 mph - N/A   Unknown
5:55 PM 37.4 °F 27.2 °F 14.0 °F 38% 29.92 in 6.2 mi ENE 19.6 mph - N/A   Unknown
6:25 PM 37.4 °F 27.5 °F 14.0 °F 38% 29.92 in 6.2 mi ENE 18.4 mph - N/A   Unknown
6:55 PM 35.6 °F 24.2 °F 14.0 °F 41% 29.92 in 6.2 mi ENE 21.9 mph - N/A   Unknown
7:00 PM 36 °F - 13 °F 26% 29.95 in 22 mi ENE 17.9 mph - -   Partly Cloudy
7:25 PM 35.6 °F 25.9 °F 14.0 °F 41% 29.95 in 6.2 mi ENE 16.1 mph - N/A   Unknown
7:55 PM 35.6 °F 26.2 °F 14.0 °F 41% 29.95 in 6.2 mi East 15.0 mph - N/A   Unknown
8:25 PM 33.8 °F 23.2 °F 14.0 °F 44% 29.95 in 6.2 mi East 17.3 mph - N/A   Unknown
8:55 PM 33.8 °F 22.8 °F 14.0 °F 44% 29.95 in 6.2 mi East 18.4 mph - N/A   Unknown
9:25 PM 33.8 °F 23.5 °F 15.8 °F 48% 29.95 in 6.2 mi East 16.1 mph - N/A   Unknown
9:55 PM 32.0 °F 21.6 °F 15.8 °F 51% 29.95 in 6.2 mi ENE 15.0 mph - N/A   Unknown
10:00 PM 32 °F - 16 °F 38% 29.97 in 22 mi ENE 13.4 mph - -   Overcast
10:25 PM 32.0 °F 21.2 °F 15.8 °F 51% 29.95 in 6.2 mi ENE 16.1 mph - N/A   Unknown
10:55 PM 32.0 °F 21.6 °F 17.6 °F 55% 29.98 in 6.2 mi East 15.0 mph 26.5 mph N/A   Unknown
11:25 PM 32.0 °F 20.8 °F 15.8 °F 51% 29.95 in 6.2 mi ENE 17.3 mph - N/A   Unknown
11:55 PM 32.0 °F 21.2 °F 15.8 °F 51% 29.95 in 6.2 mi ENE 16.1 mph - N/A   Unknown